Index of /20260429/WXO-DD/model_rdps/10km/18/025
Name Last modified Size Description
Parent Directory -
20260429T18Z_MSC_RDPS_AbsoluteVorticity_IsbL-0250_RLatLon0.09_PT025H.grib2 2026-04-29 20:49 622K
20260429T18Z_MSC_RDPS_AbsoluteVorticity_IsbL-0500_RLatLon0.09_PT025H.grib2 2026-04-29 20:49 569K
20260429T18Z_MSC_RDPS_AbsoluteVorticity_IsbL-0700_RLatLon0.09_PT025H.grib2 2026-04-29 20:49 629K
20260429T18Z_MSC_RDPS_AbsoluteVorticity_IsbL-0850_RLatLon0.09_PT025H.grib2 2026-04-29 20:49 779K
20260429T18Z_MSC_RDPS_AirTemp_AGL-120m_RLatLon0.09_PT025H.grib2 2026-04-29 20:49 395K
20260429T18Z_MSC_RDPS_AirTemp_AGL-2m_RLatLon0.09_PT025H.grib2 2026-04-29 20:49 632K
20260429T18Z_MSC_RDPS_AirTemp_AGL-40m_RLatLon0.09_PT025H.grib2 2026-04-29 20:49 405K
20260429T18Z_MSC_RDPS_AirTemp_AGL-80m_RLatLon0.09_PT025H.grib2 2026-04-29 20:49 400K
20260429T18Z_MSC_RDPS_AirTemp_IsbL-0001_RLatLon0.09_PT025H.grib2 2026-04-29 20:49 286K
20260429T18Z_MSC_RDPS_AirTemp_IsbL-0005_RLatLon0.09_PT025H.grib2 2026-04-29 20:49 291K
20260429T18Z_MSC_RDPS_AirTemp_IsbL-0010_RLatLon0.09_PT025H.grib2 2026-04-29 20:49 303K
20260429T18Z_MSC_RDPS_AirTemp_IsbL-0020_RLatLon0.09_PT025H.grib2 2026-04-29 20:49 320K
20260429T18Z_MSC_RDPS_AirTemp_IsbL-0030_RLatLon0.09_PT025H.grib2 2026-04-29 20:49 343K
20260429T18Z_MSC_RDPS_AirTemp_IsbL-0050_RLatLon0.09_PT025H.grib2 2026-04-29 20:49 315K
20260429T18Z_MSC_RDPS_AirTemp_IsbL-0100_RLatLon0.09_PT025H.grib2 2026-04-29 20:49 426K
20260429T18Z_MSC_RDPS_AirTemp_IsbL-0150_RLatLon0.09_PT025H.grib2 2026-04-29 20:49 423K
20260429T18Z_MSC_RDPS_AirTemp_IsbL-0175_RLatLon0.09_PT025H.grib2 2026-04-29 20:49 413K
20260429T18Z_MSC_RDPS_AirTemp_IsbL-0200_RLatLon0.09_PT025H.grib2 2026-04-29 20:49 418K
20260429T18Z_MSC_RDPS_AirTemp_IsbL-0225_RLatLon0.09_PT025H.grib2 2026-04-29 20:49 417K
20260429T18Z_MSC_RDPS_AirTemp_IsbL-0250_RLatLon0.09_PT025H.grib2 2026-04-29 20:49 426K
20260429T18Z_MSC_RDPS_AirTemp_IsbL-0275_RLatLon0.09_PT025H.grib2 2026-04-29 20:49 406K
20260429T18Z_MSC_RDPS_AirTemp_IsbL-0300_RLatLon0.09_PT025H.grib2 2026-04-29 20:49 410K
20260429T18Z_MSC_RDPS_AirTemp_IsbL-0350_RLatLon0.09_PT025H.grib2 2026-04-29 20:49 423K
20260429T18Z_MSC_RDPS_AirTemp_IsbL-0400_RLatLon0.09_PT025H.grib2 2026-04-29 20:49 425K
20260429T18Z_MSC_RDPS_AirTemp_IsbL-0450_RLatLon0.09_PT025H.grib2 2026-04-29 20:49 432K
20260429T18Z_MSC_RDPS_AirTemp_IsbL-0500_RLatLon0.09_PT025H.grib2 2026-04-29 20:49 409K
20260429T18Z_MSC_RDPS_AirTemp_IsbL-0550_RLatLon0.09_PT025H.grib2 2026-04-29 20:49 428K
20260429T18Z_MSC_RDPS_AirTemp_IsbL-0600_RLatLon0.09_PT025H.grib2 2026-04-29 20:49 452K
20260429T18Z_MSC_RDPS_AirTemp_IsbL-0650_RLatLon0.09_PT025H.grib2 2026-04-29 20:49 364K
20260429T18Z_MSC_RDPS_AirTemp_IsbL-0700_RLatLon0.09_PT025H.grib2 2026-04-29 20:49 385K
20260429T18Z_MSC_RDPS_AirTemp_IsbL-0750_RLatLon0.09_PT025H.grib2 2026-04-29 20:49 415K
20260429T18Z_MSC_RDPS_AirTemp_IsbL-0800_RLatLon0.09_PT025H.grib2 2026-04-29 20:49 455K
20260429T18Z_MSC_RDPS_AirTemp_IsbL-0850_RLatLon0.09_PT025H.grib2 2026-04-29 20:49 502K
20260429T18Z_MSC_RDPS_AirTemp_IsbL-0875_RLatLon0.09_PT025H.grib2 2026-04-29 20:49 524K
20260429T18Z_MSC_RDPS_AirTemp_IsbL-0900_RLatLon0.09_PT025H.grib2 2026-04-29 20:49 535K
20260429T18Z_MSC_RDPS_AirTemp_IsbL-0925_RLatLon0.09_PT025H.grib2 2026-04-29 20:49 535K
20260429T18Z_MSC_RDPS_AirTemp_IsbL-0950_RLatLon0.09_PT025H.grib2 2026-04-29 20:49 536K
20260429T18Z_MSC_RDPS_AirTemp_IsbL-0970_RLatLon0.09_PT025H.grib2 2026-04-29 20:49 531K
20260429T18Z_MSC_RDPS_AirTemp_IsbL-0985_RLatLon0.09_PT025H.grib2 2026-04-29 20:49 529K
20260429T18Z_MSC_RDPS_AirTemp_IsbL-1000_RLatLon0.09_PT025H.grib2 2026-04-29 20:49 515K
20260429T18Z_MSC_RDPS_AirTemp_IsbL-1015_RLatLon0.09_PT025H.grib2 2026-04-29 20:49 513K
20260429T18Z_MSC_RDPS_Albedo_Sfc_RLatLon0.09_PT025H.grib2 2026-04-29 20:49 159K
20260429T18Z_MSC_RDPS_CAPE_Sfc_RLatLon0.09_PT025H.grib2 2026-04-29 20:49 1.6M
20260429T18Z_MSC_RDPS_CIN_Sfc_RLatLon0.09_PT025H.grib2 2026-04-29 20:49 1.1M
20260429T18Z_MSC_RDPS_CloudWater_EAtm_RLatLon0.09_PT025H.grib2 2026-04-29 20:49 222K
20260429T18Z_MSC_RDPS_ConvectivePrecip-Accum_Sfc_RLatLon0.09_PT025H.grib2 2026-04-29 20:49 792K
20260429T18Z_MSC_RDPS_DewPointDepression_AGL-2m_RLatLon0.09_PT025H.grib2 2026-04-29 20:49 421K
20260429T18Z_MSC_RDPS_DewPointDepression_IsbL-0001_RLatLon0.09_PT025H.grib2 2026-04-29 20:49 193
20260429T18Z_MSC_RDPS_DewPointDepression_IsbL-0005_RLatLon0.09_PT025H.grib2 2026-04-29 20:49 193
20260429T18Z_MSC_RDPS_DewPointDepression_IsbL-0010_RLatLon0.09_PT025H.grib2 2026-04-29 20:49 193
20260429T18Z_MSC_RDPS_DewPointDepression_IsbL-0020_RLatLon0.09_PT025H.grib2 2026-04-29 20:49 193
20260429T18Z_MSC_RDPS_DewPointDepression_IsbL-0030_RLatLon0.09_PT025H.grib2 2026-04-29 20:49 193
20260429T18Z_MSC_RDPS_DewPointDepression_IsbL-0050_RLatLon0.09_PT025H.grib2 2026-04-29 20:49 82K
20260429T18Z_MSC_RDPS_DewPointDepression_IsbL-0100_RLatLon0.09_PT025H.grib2 2026-04-29 20:49 129K
20260429T18Z_MSC_RDPS_DewPointDepression_IsbL-0150_RLatLon0.09_PT025H.grib2 2026-04-29 20:49 152K
20260429T18Z_MSC_RDPS_DewPointDepression_IsbL-0175_RLatLon0.09_PT025H.grib2 2026-04-29 20:49 183K
20260429T18Z_MSC_RDPS_DewPointDepression_IsbL-0200_RLatLon0.09_PT025H.grib2 2026-04-29 20:49 221K
20260429T18Z_MSC_RDPS_DewPointDepression_IsbL-0225_RLatLon0.09_PT025H.grib2 2026-04-29 20:49 263K
20260429T18Z_MSC_RDPS_DewPointDepression_IsbL-0250_RLatLon0.09_PT025H.grib2 2026-04-29 20:49 303K
20260429T18Z_MSC_RDPS_DewPointDepression_IsbL-0275_RLatLon0.09_PT025H.grib2 2026-04-29 20:49 309K
20260429T18Z_MSC_RDPS_DewPointDepression_IsbL-0300_RLatLon0.09_PT025H.grib2 2026-04-29 20:49 330K
20260429T18Z_MSC_RDPS_DewPointDepression_IsbL-0350_RLatLon0.09_PT025H.grib2 2026-04-29 20:49 334K
20260429T18Z_MSC_RDPS_DewPointDepression_IsbL-0400_RLatLon0.09_PT025H.grib2 2026-04-29 20:49 340K
20260429T18Z_MSC_RDPS_DewPointDepression_IsbL-0450_RLatLon0.09_PT025H.grib2 2026-04-29 20:49 347K
20260429T18Z_MSC_RDPS_DewPointDepression_IsbL-0500_RLatLon0.09_PT025H.grib2 2026-04-29 20:49 351K
20260429T18Z_MSC_RDPS_DewPointDepression_IsbL-0550_RLatLon0.09_PT025H.grib2 2026-04-29 20:49 365K
20260429T18Z_MSC_RDPS_DewPointDepression_IsbL-0600_RLatLon0.09_PT025H.grib2 2026-04-29 20:49 383K
20260429T18Z_MSC_RDPS_DewPointDepression_IsbL-0650_RLatLon0.09_PT025H.grib2 2026-04-29 20:49 393K
20260429T18Z_MSC_RDPS_DewPointDepression_IsbL-0700_RLatLon0.09_PT025H.grib2 2026-04-29 20:49 400K
20260429T18Z_MSC_RDPS_DewPointDepression_IsbL-0750_RLatLon0.09_PT025H.grib2 2026-04-29 20:49 417K
20260429T18Z_MSC_RDPS_DewPointDepression_IsbL-0800_RLatLon0.09_PT025H.grib2 2026-04-29 20:49 449K
20260429T18Z_MSC_RDPS_DewPointDepression_IsbL-0850_RLatLon0.09_PT025H.grib2 2026-04-29 20:49 473K
20260429T18Z_MSC_RDPS_DewPointDepression_IsbL-0875_RLatLon0.09_PT025H.grib2 2026-04-29 20:49 479K
20260429T18Z_MSC_RDPS_DewPointDepression_IsbL-0900_RLatLon0.09_PT025H.grib2 2026-04-29 20:49 473K
20260429T18Z_MSC_RDPS_DewPointDepression_IsbL-0925_RLatLon0.09_PT025H.grib2 2026-04-29 20:49 459K
20260429T18Z_MSC_RDPS_DewPointDepression_IsbL-0950_RLatLon0.09_PT025H.grib2 2026-04-29 20:49 452K
20260429T18Z_MSC_RDPS_DewPointDepression_IsbL-0970_RLatLon0.09_PT025H.grib2 2026-04-29 20:49 443K
20260429T18Z_MSC_RDPS_DewPointDepression_IsbL-0985_RLatLon0.09_PT025H.grib2 2026-04-29 20:49 437K
20260429T18Z_MSC_RDPS_DewPointDepression_IsbL-1000_RLatLon0.09_PT025H.grib2 2026-04-29 20:49 432K
20260429T18Z_MSC_RDPS_DewPointDepression_IsbL-1015_RLatLon0.09_PT025H.grib2 2026-04-29 20:49 424K
20260429T18Z_MSC_RDPS_DewPoint_AGL-2m_RLatLon0.09_PT025H.grib2 2026-04-29 20:49 314K
20260429T18Z_MSC_RDPS_DownwardLongwaveRadiationFlux-Accum_Sfc_RLatLon0.09_PT025H.grib2 2026-04-29 20:49 433K
20260429T18Z_MSC_RDPS_DownwardShortwaveRadiationFlux-Accum_NTAtm_RLatLon0.09_PT025H.grib2 2026-04-29 20:49 124K
20260429T18Z_MSC_RDPS_DownwardShortwaveRadiationFlux-Accum_Sfc_RLatLon0.09_PT025H.grib2 2026-04-29 20:49 643K
20260429T18Z_MSC_RDPS_FreezingRain-Accum1h_Sfc_RLatLon0.09_PT025H.grib2 2026-04-29 20:49 13K
20260429T18Z_MSC_RDPS_FreezingRain-Accum_Sfc_RLatLon0.09_PT025H.grib2 2026-04-29 20:49 116K
20260429T18Z_MSC_RDPS_GeopotentialHeight_IsbL-0001_RLatLon0.09_PT025H.grib2 2026-04-29 20:49 324K
20260429T18Z_MSC_RDPS_GeopotentialHeight_IsbL-0005_RLatLon0.09_PT025H.grib2 2026-04-29 20:49 341K
20260429T18Z_MSC_RDPS_GeopotentialHeight_IsbL-0010_RLatLon0.09_PT025H.grib2 2026-04-29 20:49 343K
20260429T18Z_MSC_RDPS_GeopotentialHeight_IsbL-0020_RLatLon0.09_PT025H.grib2 2026-04-29 20:49 309K
20260429T18Z_MSC_RDPS_GeopotentialHeight_IsbL-0030_RLatLon0.09_PT025H.grib2 2026-04-29 20:49 311K
20260429T18Z_MSC_RDPS_GeopotentialHeight_IsbL-0050_RLatLon0.09_PT025H.grib2 2026-04-29 20:49 311K
20260429T18Z_MSC_RDPS_GeopotentialHeight_IsbL-0100_RLatLon0.09_PT025H.grib2 2026-04-29 20:49 287K
20260429T18Z_MSC_RDPS_GeopotentialHeight_IsbL-0150_RLatLon0.09_PT025H.grib2 2026-04-29 20:49 230K
20260429T18Z_MSC_RDPS_GeopotentialHeight_IsbL-0175_RLatLon0.09_PT025H.grib2 2026-04-29 20:49 232K
20260429T18Z_MSC_RDPS_GeopotentialHeight_IsbL-0200_RLatLon0.09_PT025H.grib2 2026-04-29 20:49 265K
20260429T18Z_MSC_RDPS_GeopotentialHeight_IsbL-0225_RLatLon0.09_PT025H.grib2 2026-04-29 20:49 267K
20260429T18Z_MSC_RDPS_GeopotentialHeight_IsbL-0250_RLatLon0.09_PT025H.grib2 2026-04-29 20:49 269K
20260429T18Z_MSC_RDPS_GeopotentialHeight_IsbL-0275_RLatLon0.09_PT025H.grib2 2026-04-29 20:49 267K
20260429T18Z_MSC_RDPS_GeopotentialHeight_IsbL-0300_RLatLon0.09_PT025H.grib2 2026-04-29 20:49 267K
20260429T18Z_MSC_RDPS_GeopotentialHeight_IsbL-0350_RLatLon0.09_PT025H.grib2 2026-04-29 20:49 232K
20260429T18Z_MSC_RDPS_GeopotentialHeight_IsbL-0400_RLatLon0.09_PT025H.grib2 2026-04-29 20:49 230K
20260429T18Z_MSC_RDPS_GeopotentialHeight_IsbL-0450_RLatLon0.09_PT025H.grib2 2026-04-29 20:49 298K
20260429T18Z_MSC_RDPS_GeopotentialHeight_IsbL-0500_RLatLon0.09_PT025H.grib2 2026-04-29 20:49 293K
20260429T18Z_MSC_RDPS_GeopotentialHeight_IsbL-0550_RLatLon0.09_PT025H.grib2 2026-04-29 20:49 289K
20260429T18Z_MSC_RDPS_GeopotentialHeight_IsbL-0600_RLatLon0.09_PT025H.grib2 2026-04-29 20:49 287K
20260429T18Z_MSC_RDPS_GeopotentialHeight_IsbL-0650_RLatLon0.09_PT025H.grib2 2026-04-29 20:49 256K
20260429T18Z_MSC_RDPS_GeopotentialHeight_IsbL-0700_RLatLon0.09_PT025H.grib2 2026-04-29 20:49 338K
20260429T18Z_MSC_RDPS_GeopotentialHeight_IsbL-0750_RLatLon0.09_PT025H.grib2 2026-04-29 20:49 340K
20260429T18Z_MSC_RDPS_GeopotentialHeight_IsbL-0800_RLatLon0.09_PT025H.grib2 2026-04-29 20:49 347K
20260429T18Z_MSC_RDPS_GeopotentialHeight_IsbL-0850_RLatLon0.09_PT025H.grib2 2026-04-29 20:49 356K
20260429T18Z_MSC_RDPS_GeopotentialHeight_IsbL-0875_RLatLon0.09_PT025H.grib2 2026-04-29 20:49 392K
20260429T18Z_MSC_RDPS_GeopotentialHeight_IsbL-0900_RLatLon0.09_PT025H.grib2 2026-04-29 20:49 397K
20260429T18Z_MSC_RDPS_GeopotentialHeight_IsbL-0925_RLatLon0.09_PT025H.grib2 2026-04-29 20:49 399K
20260429T18Z_MSC_RDPS_GeopotentialHeight_IsbL-0950_RLatLon0.09_PT025H.grib2 2026-04-29 20:49 403K
20260429T18Z_MSC_RDPS_GeopotentialHeight_IsbL-0970_RLatLon0.09_PT025H.grib2 2026-04-29 20:49 411K
20260429T18Z_MSC_RDPS_GeopotentialHeight_IsbL-0985_RLatLon0.09_PT025H.grib2 2026-04-29 20:49 422K
20260429T18Z_MSC_RDPS_GeopotentialHeight_IsbL-1000_RLatLon0.09_PT025H.grib2 2026-04-29 20:49 435K
20260429T18Z_MSC_RDPS_GeopotentialHeight_IsbL-1015_RLatLon0.09_PT025H.grib2 2026-04-29 20:49 452K
20260429T18Z_MSC_RDPS_Humidex_Sfc_RLatLon0.09_PT025H.grib2 2026-04-29 20:49 2.4M
20260429T18Z_MSC_RDPS_IcePellets-Accum1h_Sfc_RLatLon0.09_PT025H.grib2 2026-04-29 20:49 2.3K
20260429T18Z_MSC_RDPS_IcePellets-Accum_Sfc_RLatLon0.09_PT025H.grib2 2026-04-29 20:49 8.2K
20260429T18Z_MSC_RDPS_KIndex_Sfc_RLatLon0.09_PT025H.grib2 2026-04-29 20:49 2.4M
20260429T18Z_MSC_RDPS_LatentHeatNetFlux_Sfc_RLatLon0.09_PT025H.grib2 2026-04-29 20:49 301K
20260429T18Z_MSC_RDPS_LiftedIndex-MU-VT_IsbL-0500_RLatLon0.09_PT025H.grib2 2026-04-29 20:49 2.4M
20260429T18Z_MSC_RDPS_NetLongwaveRadiationFlux-Accum_Sfc_RLatLon0.09_PT025H.grib2 2026-04-29 20:49 572K
20260429T18Z_MSC_RDPS_NetShortwaveRadiationFlux-Accum_Sfc_RLatLon0.09_PT025H.grib2 2026-04-29 20:49 642K
20260429T18Z_MSC_RDPS_PlanetaryBoundaryLayerHeight_Sfc_RLatLon0.09_PT025H.grib2 2026-04-29 20:49 1.0M
20260429T18Z_MSC_RDPS_Precip-Accum1h_Sfc_RLatLon0.09_PT025H.grib2 2026-04-29 20:49 1.2M
20260429T18Z_MSC_RDPS_Precip-Accum_Sfc_RLatLon0.09_PT025H.grib2 2026-04-29 20:49 1.7M
20260429T18Z_MSC_RDPS_PrecipRate_Sfc_RLatLon0.09_PT025H.grib2 2026-04-29 20:49 190K
20260429T18Z_MSC_RDPS_PrecipType-Instant_Sfc_RLatLon0.09_PT025H.grib2 2026-04-29 20:49 572K
20260429T18Z_MSC_RDPS_Pressure-Trend3h_Sfc_RLatLon0.09_PT025H.grib2 2026-04-29 20:49 1.2M
20260429T18Z_MSC_RDPS_Pressure_MSL_RLatLon0.09_PT025H.grib2 2026-04-29 20:49 330K
20260429T18Z_MSC_RDPS_Pressure_PVU-1.5_RLatLon0.09_PT025H.grib2 2026-04-29 20:49 2.3M
20260429T18Z_MSC_RDPS_Pressure_PVU-1_RLatLon0.09_PT025H.grib2 2026-04-29 20:49 2.4M
20260429T18Z_MSC_RDPS_Pressure_PVU-2_RLatLon0.09_PT025H.grib2 2026-04-29 20:49 2.4M
20260429T18Z_MSC_RDPS_Pressure_Sfc_RLatLon0.09_PT025H.grib2 2026-04-29 20:49 500K
20260429T18Z_MSC_RDPS_RadiativeTemp_Sfc_RLatLon0.09_PT025H.grib2 2026-04-29 20:49 329K
20260429T18Z_MSC_RDPS_Rain-Accum1h_Sfc_RLatLon0.09_PT025H.grib2 2026-04-29 20:49 535K
20260429T18Z_MSC_RDPS_Rain-Accum_Sfc_RLatLon0.09_PT025H.grib2 2026-04-29 20:49 1.3M
20260429T18Z_MSC_RDPS_RelativeHumidity_AGL-2m_RLatLon0.09_PT025H.grib2 2026-04-29 20:49 1.0M
20260429T18Z_MSC_RDPS_RelativeHumidity_IsbL-0010_RLatLon0.09_PT025H.grib2 2026-04-29 20:49 633K
20260429T18Z_MSC_RDPS_RelativeHumidity_IsbL-0020_RLatLon0.09_PT025H.grib2 2026-04-29 20:49 685K
20260429T18Z_MSC_RDPS_RelativeHumidity_IsbL-0030_RLatLon0.09_PT025H.grib2 2026-04-29 20:49 606K
20260429T18Z_MSC_RDPS_RelativeHumidity_IsbL-0050_RLatLon0.09_PT025H.grib2 2026-04-29 20:49 320K
20260429T18Z_MSC_RDPS_RelativeHumidity_IsbL-0100_RLatLon0.09_PT025H.grib2 2026-04-29 20:49 285K
20260429T18Z_MSC_RDPS_RelativeHumidity_IsbL-0150_RLatLon0.09_PT025H.grib2 2026-04-29 20:49 413K
20260429T18Z_MSC_RDPS_RelativeHumidity_IsbL-0175_RLatLon0.09_PT025H.grib2 2026-04-29 20:49 477K
20260429T18Z_MSC_RDPS_RelativeHumidity_IsbL-0200_RLatLon0.09_PT025H.grib2 2026-04-29 20:49 557K
20260429T18Z_MSC_RDPS_RelativeHumidity_IsbL-0225_RLatLon0.09_PT025H.grib2 2026-04-29 20:49 627K
20260429T18Z_MSC_RDPS_RelativeHumidity_IsbL-0250_RLatLon0.09_PT025H.grib2 2026-04-29 20:49 703K
20260429T18Z_MSC_RDPS_RelativeHumidity_IsbL-0275_RLatLon0.09_PT025H.grib2 2026-04-29 20:49 728K
20260429T18Z_MSC_RDPS_RelativeHumidity_IsbL-0300_RLatLon0.09_PT025H.grib2 2026-04-29 20:49 774K
20260429T18Z_MSC_RDPS_RelativeHumidity_IsbL-0350_RLatLon0.09_PT025H.grib2 2026-04-29 20:49 791K
20260429T18Z_MSC_RDPS_RelativeHumidity_IsbL-0400_RLatLon0.09_PT025H.grib2 2026-04-29 20:49 798K
20260429T18Z_MSC_RDPS_RelativeHumidity_IsbL-0450_RLatLon0.09_PT025H.grib2 2026-04-29 20:49 801K
20260429T18Z_MSC_RDPS_RelativeHumidity_IsbL-0500_RLatLon0.09_PT025H.grib2 2026-04-29 20:49 804K
20260429T18Z_MSC_RDPS_RelativeHumidity_IsbL-0550_RLatLon0.09_PT025H.grib2 2026-04-29 20:49 825K
20260429T18Z_MSC_RDPS_RelativeHumidity_IsbL-0600_RLatLon0.09_PT025H.grib2 2026-04-29 20:49 856K
20260429T18Z_MSC_RDPS_RelativeHumidity_IsbL-0650_RLatLon0.09_PT025H.grib2 2026-04-29 20:49 885K
20260429T18Z_MSC_RDPS_RelativeHumidity_IsbL-0700_RLatLon0.09_PT025H.grib2 2026-04-29 20:49 896K
20260429T18Z_MSC_RDPS_RelativeHumidity_IsbL-0750_RLatLon0.09_PT025H.grib2 2026-04-29 20:49 942K
20260429T18Z_MSC_RDPS_RelativeHumidity_IsbL-0800_RLatLon0.09_PT025H.grib2 2026-04-29 20:49 1.0M
20260429T18Z_MSC_RDPS_RelativeHumidity_IsbL-0850_RLatLon0.09_PT025H.grib2 2026-04-29 20:49 1.0M
20260429T18Z_MSC_RDPS_RelativeHumidity_IsbL-0875_RLatLon0.09_PT025H.grib2 2026-04-29 20:49 1.1M
20260429T18Z_MSC_RDPS_RelativeHumidity_IsbL-0900_RLatLon0.09_PT025H.grib2 2026-04-29 20:49 1.1M
20260429T18Z_MSC_RDPS_RelativeHumidity_IsbL-0925_RLatLon0.09_PT025H.grib2 2026-04-29 20:49 1.1M
20260429T18Z_MSC_RDPS_RelativeHumidity_IsbL-0950_RLatLon0.09_PT025H.grib2 2026-04-29 20:49 1.1M
20260429T18Z_MSC_RDPS_RelativeHumidity_IsbL-0970_RLatLon0.09_PT025H.grib2 2026-04-29 20:49 1.1M
20260429T18Z_MSC_RDPS_RelativeHumidity_IsbL-0985_RLatLon0.09_PT025H.grib2 2026-04-29 20:49 1.0M
20260429T18Z_MSC_RDPS_RelativeHumidity_IsbL-1000_RLatLon0.09_PT025H.grib2 2026-04-29 20:49 1.0M
20260429T18Z_MSC_RDPS_RelativeHumidity_IsbL-1015_RLatLon0.09_PT025H.grib2 2026-04-29 20:49 1.0M
20260429T18Z_MSC_RDPS_Runoff-Accum_Sfc_RLatLon0.09_PT025H.grib2 2026-04-29 20:49 51K
20260429T18Z_MSC_RDPS_SWEATIndex_Sfc_RLatLon0.09_PT025H.grib2 2026-04-29 20:49 2.4M
20260429T18Z_MSC_RDPS_SeeingIndex_EAtm_RLatLon0.09_PT025H.grib2 2026-04-29 20:49 1.0M
20260429T18Z_MSC_RDPS_SensibleHeatNetFlux_Sfc_RLatLon0.09_PT025H.grib2 2026-04-29 20:49 361K
20260429T18Z_MSC_RDPS_ShowalterIndex_IsbL-0500_RLatLon0.09_PT025H.grib2 2026-04-29 20:49 2.6M
20260429T18Z_MSC_RDPS_SkyTransparencyIndex_EAtm_RLatLon0.09_PT025H.grib2 2026-04-29 20:49 687K
20260429T18Z_MSC_RDPS_Snow-Accum1h_Sfc_RLatLon0.09_PT025H.grib2 2026-04-29 20:49 520K
20260429T18Z_MSC_RDPS_Snow-Accum_Sfc_RLatLon0.09_PT025H.grib2 2026-04-29 20:49 684K
20260429T18Z_MSC_RDPS_SnowDensity_Sfc_RLatLon0.09_PT025H.grib2 2026-04-29 20:49 175K
20260429T18Z_MSC_RDPS_SnowDepth_Sfc_RLatLon0.09_PT025H.grib2 2026-04-29 20:49 678K
20260429T18Z_MSC_RDPS_SoilTemp_DBS-0to10cm_RLatLon0.09_PT025H.grib2 2026-04-29 20:49 226K
20260429T18Z_MSC_RDPS_SoilTemp_Sfc_RLatLon0.09_PT025H.grib2 2026-04-29 20:49 292K
20260429T18Z_MSC_RDPS_SoilVolumetricIceContent_Sfc_RLatLon0.09_PT025H.grib2 2026-04-29 20:49 163K
20260429T18Z_MSC_RDPS_SoilVolumetricWaterContent_DBS-0to10cm_RLatLon0.09_PT025H.grib2 2026-04-29 20:49 267K
20260429T18Z_MSC_RDPS_SoilVolumetricWaterContent_DBS-0to1cm_RLatLon0.09_PT025H.grib2 2026-04-29 20:49 334K
20260429T18Z_MSC_RDPS_SpecificHumidity_AGL-120m_RLatLon0.09_PT025H.grib2 2026-04-29 20:49 498K
20260429T18Z_MSC_RDPS_SpecificHumidity_AGL-2m_RLatLon0.09_PT025H.grib2 2026-04-29 20:49 666K
20260429T18Z_MSC_RDPS_SpecificHumidity_AGL-40m_RLatLon0.09_PT025H.grib2 2026-04-29 20:49 502K
20260429T18Z_MSC_RDPS_SpecificHumidity_AGL-80m_RLatLon0.09_PT025H.grib2 2026-04-29 20:49 499K
20260429T18Z_MSC_RDPS_SpecificHumidity_IsbL-0001_RLatLon0.09_PT025H.grib2 2026-04-29 20:49 364K
20260429T18Z_MSC_RDPS_SpecificHumidity_IsbL-0005_RLatLon0.09_PT025H.grib2 2026-04-29 20:49 364K
20260429T18Z_MSC_RDPS_SpecificHumidity_IsbL-0010_RLatLon0.09_PT025H.grib2 2026-04-29 20:49 398K
20260429T18Z_MSC_RDPS_SpecificHumidity_IsbL-0020_RLatLon0.09_PT025H.grib2 2026-04-29 20:49 390K
20260429T18Z_MSC_RDPS_SpecificHumidity_IsbL-0030_RLatLon0.09_PT025H.grib2 2026-04-29 20:49 374K
20260429T18Z_MSC_RDPS_SpecificHumidity_IsbL-0050_RLatLon0.09_PT025H.grib2 2026-04-29 20:49 464K
20260429T18Z_MSC_RDPS_SpecificHumidity_IsbL-0100_RLatLon0.09_PT025H.grib2 2026-04-29 20:49 352K
20260429T18Z_MSC_RDPS_SpecificHumidity_IsbL-0150_RLatLon0.09_PT025H.grib2 2026-04-29 20:49 459K
20260429T18Z_MSC_RDPS_SpecificHumidity_IsbL-0175_RLatLon0.09_PT025H.grib2 2026-04-29 20:49 537K
20260429T18Z_MSC_RDPS_SpecificHumidity_IsbL-0200_RLatLon0.09_PT025H.grib2 2026-04-29 20:49 452K
20260429T18Z_MSC_RDPS_SpecificHumidity_IsbL-0225_RLatLon0.09_PT025H.grib2 2026-04-29 20:49 455K
20260429T18Z_MSC_RDPS_SpecificHumidity_IsbL-0250_RLatLon0.09_PT025H.grib2 2026-04-29 20:49 564K
20260429T18Z_MSC_RDPS_SpecificHumidity_IsbL-0275_RLatLon0.09_PT025H.grib2 2026-04-29 20:49 479K
20260429T18Z_MSC_RDPS_SpecificHumidity_IsbL-0300_RLatLon0.09_PT025H.grib2 2026-04-29 20:49 454K
20260429T18Z_MSC_RDPS_SpecificHumidity_IsbL-0350_RLatLon0.09_PT025H.grib2 2026-04-29 20:49 570K
20260429T18Z_MSC_RDPS_SpecificHumidity_IsbL-0400_RLatLon0.09_PT025H.grib2 2026-04-29 20:49 521K
20260429T18Z_MSC_RDPS_SpecificHumidity_IsbL-0450_RLatLon0.09_PT025H.grib2 2026-04-29 20:49 572K
20260429T18Z_MSC_RDPS_SpecificHumidity_IsbL-0500_RLatLon0.09_PT025H.grib2 2026-04-29 20:49 506K
20260429T18Z_MSC_RDPS_SpecificHumidity_IsbL-0550_RLatLon0.09_PT025H.grib2 2026-04-29 20:49 583K
20260429T18Z_MSC_RDPS_SpecificHumidity_IsbL-0600_RLatLon0.09_PT025H.grib2 2026-04-29 20:49 644K
20260429T18Z_MSC_RDPS_SpecificHumidity_IsbL-0650_RLatLon0.09_PT025H.grib2 2026-04-29 20:49 566K
20260429T18Z_MSC_RDPS_SpecificHumidity_IsbL-0700_RLatLon0.09_PT025H.grib2 2026-04-29 20:49 607K
20260429T18Z_MSC_RDPS_SpecificHumidity_IsbL-0750_RLatLon0.09_PT025H.grib2 2026-04-29 20:49 660K
20260429T18Z_MSC_RDPS_SpecificHumidity_IsbL-0800_RLatLon0.09_PT025H.grib2 2026-04-29 20:49 740K
20260429T18Z_MSC_RDPS_SpecificHumidity_IsbL-0850_RLatLon0.09_PT025H.grib2 2026-04-29 20:49 807K
20260429T18Z_MSC_RDPS_SpecificHumidity_IsbL-0875_RLatLon0.09_PT025H.grib2 2026-04-29 20:49 834K
20260429T18Z_MSC_RDPS_SpecificHumidity_IsbL-0900_RLatLon0.09_PT025H.grib2 2026-04-29 20:49 711K
20260429T18Z_MSC_RDPS_SpecificHumidity_IsbL-0925_RLatLon0.09_PT025H.grib2 2026-04-29 20:49 713K
20260429T18Z_MSC_RDPS_SpecificHumidity_IsbL-0950_RLatLon0.09_PT025H.grib2 2026-04-29 20:49 714K
20260429T18Z_MSC_RDPS_SpecificHumidity_IsbL-0970_RLatLon0.09_PT025H.grib2 2026-04-29 20:49 704K
20260429T18Z_MSC_RDPS_SpecificHumidity_IsbL-0985_RLatLon0.09_PT025H.grib2 2026-04-29 20:49 695K
20260429T18Z_MSC_RDPS_SpecificHumidity_IsbL-1000_RLatLon0.09_PT025H.grib2 2026-04-29 20:49 686K
20260429T18Z_MSC_RDPS_SpecificHumidity_IsbL-1015_RLatLon0.09_PT025H.grib2 2026-04-29 20:49 676K
20260429T18Z_MSC_RDPS_SpecificHumidity_Sfc_RLatLon0.09_PT025H.grib2 2026-04-29 20:49 342K
20260429T18Z_MSC_RDPS_StormRelativeHelicity_EtaL-10000_RLatLon0.09_PT025H.grib2 2026-04-29 20:49 1.1M
20260429T18Z_MSC_RDPS_StormSeverityIndex_EtaL-10000_RLatLon0.09_PT025H.grib2 2026-04-29 20:49 1.2M
20260429T18Z_MSC_RDPS_Thickness_IsbL-0850to0700_RLatLon0.09_PT025H.grib2 2026-04-29 20:49 180K
20260429T18Z_MSC_RDPS_Thickness_IsbL-1000to0500_RLatLon0.09_PT025H.grib2 2026-04-29 20:49 139K
20260429T18Z_MSC_RDPS_Thickness_IsbL-1000to0850_RLatLon0.09_PT025H.grib2 2026-04-29 20:49 191K
20260429T18Z_MSC_RDPS_TotalCloudCover_Sfc_RLatLon0.09_PT025H.grib2 2026-04-29 20:49 651K
20260429T18Z_MSC_RDPS_TotalTotalsIndex_Sfc_RLatLon0.09_PT025H.grib2 2026-04-29 20:49 2.3M
20260429T18Z_MSC_RDPS_UVIndex-ClearSky_Sfc_RLatLon0.09_PT025H.grib2 2026-04-29 20:49 227K
20260429T18Z_MSC_RDPS_UVIndex_Sfc_RLatLon0.09_PT025H.grib2 2026-04-29 20:49 523K
20260429T18Z_MSC_RDPS_UpwardLongwaveRadiationFlux_NTAtm_RLatLon0.09_PT025H.grib2 2026-04-29 20:49 384K
20260429T18Z_MSC_RDPS_UpwardShortwaveRadiationFlux_NTAtm_RLatLon0.09_PT025H.grib2 2026-04-29 20:49 553K
20260429T18Z_MSC_RDPS_VerticalVelocity_IsbL-0250_RLatLon0.09_PT025H.grib2 2026-04-29 20:49 555K
20260429T18Z_MSC_RDPS_VerticalVelocity_IsbL-0500_RLatLon0.09_PT025H.grib2 2026-04-29 20:49 545K
20260429T18Z_MSC_RDPS_VerticalVelocity_IsbL-0700_RLatLon0.09_PT025H.grib2 2026-04-29 20:49 600K
20260429T18Z_MSC_RDPS_VerticalVelocity_IsbL-0850_RLatLon0.09_PT025H.grib2 2026-04-29 20:49 651K
20260429T18Z_MSC_RDPS_VerticalWindShear_EtaL-6500_RLatLon0.09_PT025H.grib2 2026-04-29 20:49 1.2M
20260429T18Z_MSC_RDPS_WindChill_Sfc_RLatLon0.09_PT025H.grib2 2026-04-29 20:49 1.1M
20260429T18Z_MSC_RDPS_WindDir_AGL-10m_RLatLon0.09_PT025H.grib2 2026-04-29 20:49 1.0M
20260429T18Z_MSC_RDPS_WindDir_AGL-120m_RLatLon0.09_PT025H.grib2 2026-04-29 20:49 629K
20260429T18Z_MSC_RDPS_WindDir_AGL-40m_RLatLon0.09_PT025H.grib2 2026-04-29 20:49 649K
20260429T18Z_MSC_RDPS_WindDir_AGL-80m_RLatLon0.09_PT025H.grib2 2026-04-29 20:49 637K
20260429T18Z_MSC_RDPS_WindDir_IsbL-0001_RLatLon0.09_PT025H.grib2 2026-04-29 20:49 292K
20260429T18Z_MSC_RDPS_WindDir_IsbL-0005_RLatLon0.09_PT025H.grib2 2026-04-29 20:49 366K
20260429T18Z_MSC_RDPS_WindDir_IsbL-0010_RLatLon0.09_PT025H.grib2 2026-04-29 20:49 371K
20260429T18Z_MSC_RDPS_WindDir_IsbL-0020_RLatLon0.09_PT025H.grib2 2026-04-29 20:49 417K
20260429T18Z_MSC_RDPS_WindDir_IsbL-0030_RLatLon0.09_PT025H.grib2 2026-04-29 20:49 416K
20260429T18Z_MSC_RDPS_WindDir_IsbL-0050_RLatLon0.09_PT025H.grib2 2026-04-29 20:49 424K
20260429T18Z_MSC_RDPS_WindDir_IsbL-0100_RLatLon0.09_PT025H.grib2 2026-04-29 20:49 435K
20260429T18Z_MSC_RDPS_WindDir_IsbL-0150_RLatLon0.09_PT025H.grib2 2026-04-29 20:49 432K
20260429T18Z_MSC_RDPS_WindDir_IsbL-0175_RLatLon0.09_PT025H.grib2 2026-04-29 20:49 448K
20260429T18Z_MSC_RDPS_WindDir_IsbL-0200_RLatLon0.09_PT025H.grib2 2026-04-29 20:49 457K
20260429T18Z_MSC_RDPS_WindDir_IsbL-0225_RLatLon0.09_PT025H.grib2 2026-04-29 20:49 461K
20260429T18Z_MSC_RDPS_WindDir_IsbL-0250_RLatLon0.09_PT025H.grib2 2026-04-29 20:49 462K
20260429T18Z_MSC_RDPS_WindDir_IsbL-0275_RLatLon0.09_PT025H.grib2 2026-04-29 20:49 486K
20260429T18Z_MSC_RDPS_WindDir_IsbL-0300_RLatLon0.09_PT025H.grib2 2026-04-29 20:49 483K
20260429T18Z_MSC_RDPS_WindDir_IsbL-0350_RLatLon0.09_PT025H.grib2 2026-04-29 20:49 499K
20260429T18Z_MSC_RDPS_WindDir_IsbL-0400_RLatLon0.09_PT025H.grib2 2026-04-29 20:49 509K
20260429T18Z_MSC_RDPS_WindDir_IsbL-0450_RLatLon0.09_PT025H.grib2 2026-04-29 20:49 516K
20260429T18Z_MSC_RDPS_WindDir_IsbL-0500_RLatLon0.09_PT025H.grib2 2026-04-29 20:49 535K
20260429T18Z_MSC_RDPS_WindDir_IsbL-0550_RLatLon0.09_PT025H.grib2 2026-04-29 20:49 558K
20260429T18Z_MSC_RDPS_WindDir_IsbL-0600_RLatLon0.09_PT025H.grib2 2026-04-29 20:49 593K
20260429T18Z_MSC_RDPS_WindDir_IsbL-0650_RLatLon0.09_PT025H.grib2 2026-04-29 20:49 645K
20260429T18Z_MSC_RDPS_WindDir_IsbL-0700_RLatLon0.09_PT025H.grib2 2026-04-29 20:49 694K
20260429T18Z_MSC_RDPS_WindDir_IsbL-0750_RLatLon0.09_PT025H.grib2 2026-04-29 20:49 738K
20260429T18Z_MSC_RDPS_WindDir_IsbL-0800_RLatLon0.09_PT025H.grib2 2026-04-29 20:49 800K
20260429T18Z_MSC_RDPS_WindDir_IsbL-0850_RLatLon0.09_PT025H.grib2 2026-04-29 20:49 868K
20260429T18Z_MSC_RDPS_WindDir_IsbL-0875_RLatLon0.09_PT025H.grib2 2026-04-29 20:49 896K
20260429T18Z_MSC_RDPS_WindDir_IsbL-0900_RLatLon0.09_PT025H.grib2 2026-04-29 20:49 917K
20260429T18Z_MSC_RDPS_WindDir_IsbL-0925_RLatLon0.09_PT025H.grib2 2026-04-29 20:49 928K
20260429T18Z_MSC_RDPS_WindDir_IsbL-0950_RLatLon0.09_PT025H.grib2 2026-04-29 20:49 927K
20260429T18Z_MSC_RDPS_WindDir_IsbL-0970_RLatLon0.09_PT025H.grib2 2026-04-29 20:49 937K
20260429T18Z_MSC_RDPS_WindDir_IsbL-0985_RLatLon0.09_PT025H.grib2 2026-04-29 20:49 947K
20260429T18Z_MSC_RDPS_WindDir_IsbL-1000_RLatLon0.09_PT025H.grib2 2026-04-29 20:49 960K
20260429T18Z_MSC_RDPS_WindDir_IsbL-1015_RLatLon0.09_PT025H.grib2 2026-04-29 20:49 1.0M
20260429T18Z_MSC_RDPS_WindGust-Max_AGL-10m_RLatLon0.09_PT025H.grib2 2026-04-29 20:49 1.0M
20260429T18Z_MSC_RDPS_WindGust-Min_AGL-10m_RLatLon0.09_PT025H.grib2 2026-04-29 20:49 969K
20260429T18Z_MSC_RDPS_WindGust_AGL-10m_RLatLon0.09_PT025H.grib2 2026-04-29 20:49 1.0M
20260429T18Z_MSC_RDPS_WindSpeed_AGL-10m_RLatLon0.09_PT025H.grib2 2026-04-29 20:49 837K
20260429T18Z_MSC_RDPS_WindSpeed_AGL-120m_RLatLon0.09_PT025H.grib2 2026-04-29 20:49 547K
20260429T18Z_MSC_RDPS_WindSpeed_AGL-40m_RLatLon0.09_PT025H.grib2 2026-04-29 20:49 537K
20260429T18Z_MSC_RDPS_WindSpeed_AGL-80m_RLatLon0.09_PT025H.grib2 2026-04-29 20:49 536K
20260429T18Z_MSC_RDPS_WindSpeed_IsbL-0001_RLatLon0.09_PT025H.grib2 2026-04-29 20:49 334K
20260429T18Z_MSC_RDPS_WindSpeed_IsbL-0005_RLatLon0.09_PT025H.grib2 2026-04-29 20:49 295K
20260429T18Z_MSC_RDPS_WindSpeed_IsbL-0010_RLatLon0.09_PT025H.grib2 2026-04-29 20:49 401K
20260429T18Z_MSC_RDPS_WindSpeed_IsbL-0020_RLatLon0.09_PT025H.grib2 2026-04-29 20:49 329K
20260429T18Z_MSC_RDPS_WindSpeed_IsbL-0030_RLatLon0.09_PT025H.grib2 2026-04-29 20:49 328K
20260429T18Z_MSC_RDPS_WindSpeed_IsbL-0050_RLatLon0.09_PT025H.grib2 2026-04-29 20:49 351K
20260429T18Z_MSC_RDPS_WindSpeed_IsbL-0100_RLatLon0.09_PT025H.grib2 2026-04-29 20:49 477K
20260429T18Z_MSC_RDPS_WindSpeed_IsbL-0150_RLatLon0.09_PT025H.grib2 2026-04-29 20:49 383K
20260429T18Z_MSC_RDPS_WindSpeed_IsbL-0175_RLatLon0.09_PT025H.grib2 2026-04-29 20:49 429K
20260429T18Z_MSC_RDPS_WindSpeed_IsbL-0200_RLatLon0.09_PT025H.grib2 2026-04-29 20:49 444K
20260429T18Z_MSC_RDPS_WindSpeed_IsbL-0225_RLatLon0.09_PT025H.grib2 2026-04-29 20:49 452K
20260429T18Z_MSC_RDPS_WindSpeed_IsbL-0250_RLatLon0.09_PT025H.grib2 2026-04-29 20:49 456K
20260429T18Z_MSC_RDPS_WindSpeed_IsbL-0275_RLatLon0.09_PT025H.grib2 2026-04-29 20:49 473K
20260429T18Z_MSC_RDPS_WindSpeed_IsbL-0300_RLatLon0.09_PT025H.grib2 2026-04-29 20:49 469K
20260429T18Z_MSC_RDPS_WindSpeed_IsbL-0350_RLatLon0.09_PT025H.grib2 2026-04-29 20:49 481K
20260429T18Z_MSC_RDPS_WindSpeed_IsbL-0400_RLatLon0.09_PT025H.grib2 2026-04-29 20:49 483K
20260429T18Z_MSC_RDPS_WindSpeed_IsbL-0450_RLatLon0.09_PT025H.grib2 2026-04-29 20:49 482K
20260429T18Z_MSC_RDPS_WindSpeed_IsbL-0500_RLatLon0.09_PT025H.grib2 2026-04-29 20:49 467K
20260429T18Z_MSC_RDPS_WindSpeed_IsbL-0550_RLatLon0.09_PT025H.grib2 2026-04-29 20:49 467K
20260429T18Z_MSC_RDPS_WindSpeed_IsbL-0600_RLatLon0.09_PT025H.grib2 2026-04-29 20:49 478K
20260429T18Z_MSC_RDPS_WindSpeed_IsbL-0650_RLatLon0.09_PT025H.grib2 2026-04-29 20:49 620K
20260429T18Z_MSC_RDPS_WindSpeed_IsbL-0700_RLatLon0.09_PT025H.grib2 2026-04-29 20:49 644K
20260429T18Z_MSC_RDPS_WindSpeed_IsbL-0750_RLatLon0.09_PT025H.grib2 2026-04-29 20:49 715K
20260429T18Z_MSC_RDPS_WindSpeed_IsbL-0800_RLatLon0.09_PT025H.grib2 2026-04-29 20:49 758K
20260429T18Z_MSC_RDPS_WindSpeed_IsbL-0850_RLatLon0.09_PT025H.grib2 2026-04-29 20:49 812K
20260429T18Z_MSC_RDPS_WindSpeed_IsbL-0875_RLatLon0.09_PT025H.grib2 2026-04-29 20:49 833K
20260429T18Z_MSC_RDPS_WindSpeed_IsbL-0900_RLatLon0.09_PT025H.grib2 2026-04-29 20:49 849K
20260429T18Z_MSC_RDPS_WindSpeed_IsbL-0925_RLatLon0.09_PT025H.grib2 2026-04-29 20:49 858K
20260429T18Z_MSC_RDPS_WindSpeed_IsbL-0950_RLatLon0.09_PT025H.grib2 2026-04-29 20:49 858K
20260429T18Z_MSC_RDPS_WindSpeed_IsbL-0970_RLatLon0.09_PT025H.grib2 2026-04-29 20:49 860K
20260429T18Z_MSC_RDPS_WindSpeed_IsbL-0985_RLatLon0.09_PT025H.grib2 2026-04-29 20:49 853K
20260429T18Z_MSC_RDPS_WindSpeed_IsbL-1000_RLatLon0.09_PT025H.grib2 2026-04-29 20:49 849K
20260429T18Z_MSC_RDPS_WindSpeed_IsbL-1015_RLatLon0.09_PT025H.grib2 2026-04-29 20:49 838K
20260429T18Z_MSC_RDPS_WindU_AGL-10m_RLatLon0.09_PT025H.grib2 2026-04-29 20:49 432K
20260429T18Z_MSC_RDPS_WindU_AGL-120m_RLatLon0.09_PT025H.grib2 2026-04-29 20:49 535K
20260429T18Z_MSC_RDPS_WindU_AGL-40m_RLatLon0.09_PT025H.grib2 2026-04-29 20:49 536K
20260429T18Z_MSC_RDPS_WindU_AGL-80m_RLatLon0.09_PT025H.grib2 2026-04-29 20:49 536K
20260429T18Z_MSC_RDPS_WindU_IsbL-0001_RLatLon0.09_PT025H.grib2 2026-04-29 20:49 244K
20260429T18Z_MSC_RDPS_WindU_IsbL-0005_RLatLon0.09_PT025H.grib2 2026-04-29 20:49 287K
20260429T18Z_MSC_RDPS_WindU_IsbL-0010_RLatLon0.09_PT025H.grib2 2026-04-29 20:49 299K
20260429T18Z_MSC_RDPS_WindU_IsbL-0020_RLatLon0.09_PT025H.grib2 2026-04-29 20:49 355K
20260429T18Z_MSC_RDPS_WindU_IsbL-0030_RLatLon0.09_PT025H.grib2 2026-04-29 20:49 317K
20260429T18Z_MSC_RDPS_WindU_IsbL-0050_RLatLon0.09_PT025H.grib2 2026-04-29 20:49 378K
20260429T18Z_MSC_RDPS_WindU_IsbL-0100_RLatLon0.09_PT025H.grib2 2026-04-29 20:49 434K
20260429T18Z_MSC_RDPS_WindU_IsbL-0150_RLatLon0.09_PT025H.grib2 2026-04-29 20:49 400K
20260429T18Z_MSC_RDPS_WindU_IsbL-0175_RLatLon0.09_PT025H.grib2 2026-04-29 20:49 424K
20260429T18Z_MSC_RDPS_WindU_IsbL-0200_RLatLon0.09_PT025H.grib2 2026-04-29 20:49 438K
20260429T18Z_MSC_RDPS_WindU_IsbL-0225_RLatLon0.09_PT025H.grib2 2026-04-29 20:49 344K
20260429T18Z_MSC_RDPS_WindU_IsbL-0250_RLatLon0.09_PT025H.grib2 2026-04-29 20:49 347K
20260429T18Z_MSC_RDPS_WindU_IsbL-0275_RLatLon0.09_PT025H.grib2 2026-04-29 20:49 361K
20260429T18Z_MSC_RDPS_WindU_IsbL-0300_RLatLon0.09_PT025H.grib2 2026-04-29 20:49 356K
20260429T18Z_MSC_RDPS_WindU_IsbL-0350_RLatLon0.09_PT025H.grib2 2026-04-29 20:49 365K
20260429T18Z_MSC_RDPS_WindU_IsbL-0400_RLatLon0.09_PT025H.grib2 2026-04-29 20:49 471K
20260429T18Z_MSC_RDPS_WindU_IsbL-0450_RLatLon0.09_PT025H.grib2 2026-04-29 20:49 470K
20260429T18Z_MSC_RDPS_WindU_IsbL-0500_RLatLon0.09_PT025H.grib2 2026-04-29 20:49 471K
20260429T18Z_MSC_RDPS_WindU_IsbL-0550_RLatLon0.09_PT025H.grib2 2026-04-29 20:49 472K
20260429T18Z_MSC_RDPS_WindU_IsbL-0600_RLatLon0.09_PT025H.grib2 2026-04-29 20:49 484K
20260429T18Z_MSC_RDPS_WindU_IsbL-0650_RLatLon0.09_PT025H.grib2 2026-04-29 20:49 489K
20260429T18Z_MSC_RDPS_WindU_IsbL-0700_RLatLon0.09_PT025H.grib2 2026-04-29 20:49 512K
20260429T18Z_MSC_RDPS_WindU_IsbL-0750_RLatLon0.09_PT025H.grib2 2026-04-29 20:49 536K
20260429T18Z_MSC_RDPS_WindU_IsbL-0800_RLatLon0.09_PT025H.grib2 2026-04-29 20:49 574K
20260429T18Z_MSC_RDPS_WindU_IsbL-0850_RLatLon0.09_PT025H.grib2 2026-04-29 20:49 756K
20260429T18Z_MSC_RDPS_WindU_IsbL-0875_RLatLon0.09_PT025H.grib2 2026-04-29 20:49 638K
20260429T18Z_MSC_RDPS_WindU_IsbL-0900_RLatLon0.09_PT025H.grib2 2026-04-29 20:49 652K
20260429T18Z_MSC_RDPS_WindU_IsbL-0925_RLatLon0.09_PT025H.grib2 2026-04-29 20:49 658K
20260429T18Z_MSC_RDPS_WindU_IsbL-0950_RLatLon0.09_PT025H.grib2 2026-04-29 20:49 655K
20260429T18Z_MSC_RDPS_WindU_IsbL-0970_RLatLon0.09_PT025H.grib2 2026-04-29 20:49 655K
20260429T18Z_MSC_RDPS_WindU_IsbL-0985_RLatLon0.09_PT025H.grib2 2026-04-29 20:49 792K
20260429T18Z_MSC_RDPS_WindU_IsbL-1000_RLatLon0.09_PT025H.grib2 2026-04-29 20:49 789K
20260429T18Z_MSC_RDPS_WindU_IsbL-1015_RLatLon0.09_PT025H.grib2 2026-04-29 20:49 828K
20260429T18Z_MSC_RDPS_WindV_AGL-10m_RLatLon0.09_PT025H.grib2 2026-04-29 20:49 432K
20260429T18Z_MSC_RDPS_WindV_AGL-120m_RLatLon0.09_PT025H.grib2 2026-04-29 20:49 533K
20260429T18Z_MSC_RDPS_WindV_AGL-40m_RLatLon0.09_PT025H.grib2 2026-04-29 20:49 533K
20260429T18Z_MSC_RDPS_WindV_AGL-80m_RLatLon0.09_PT025H.grib2 2026-04-29 20:49 533K
20260429T18Z_MSC_RDPS_WindV_IsbL-0001_RLatLon0.09_PT025H.grib2 2026-04-29 20:49 246K
20260429T18Z_MSC_RDPS_WindV_IsbL-0005_RLatLon0.09_PT025H.grib2 2026-04-29 20:49 288K
20260429T18Z_MSC_RDPS_WindV_IsbL-0010_RLatLon0.09_PT025H.grib2 2026-04-29 20:49 303K
20260429T18Z_MSC_RDPS_WindV_IsbL-0020_RLatLon0.09_PT025H.grib2 2026-04-29 20:49 320K
20260429T18Z_MSC_RDPS_WindV_IsbL-0030_RLatLon0.09_PT025H.grib2 2026-04-29 20:49 321K
20260429T18Z_MSC_RDPS_WindV_IsbL-0050_RLatLon0.09_PT025H.grib2 2026-04-29 20:49 345K
20260429T18Z_MSC_RDPS_WindV_IsbL-0100_RLatLon0.09_PT025H.grib2 2026-04-29 20:49 428K
20260429T18Z_MSC_RDPS_WindV_IsbL-0150_RLatLon0.09_PT025H.grib2 2026-04-29 20:49 397K
20260429T18Z_MSC_RDPS_WindV_IsbL-0175_RLatLon0.09_PT025H.grib2 2026-04-29 20:49 420K
20260429T18Z_MSC_RDPS_WindV_IsbL-0200_RLatLon0.09_PT025H.grib2 2026-04-29 20:49 336K
20260429T18Z_MSC_RDPS_WindV_IsbL-0225_RLatLon0.09_PT025H.grib2 2026-04-29 20:49 342K
20260429T18Z_MSC_RDPS_WindV_IsbL-0250_RLatLon0.09_PT025H.grib2 2026-04-29 20:49 442K
20260429T18Z_MSC_RDPS_WindV_IsbL-0275_RLatLon0.09_PT025H.grib2 2026-04-29 20:49 460K
20260429T18Z_MSC_RDPS_WindV_IsbL-0300_RLatLon0.09_PT025H.grib2 2026-04-29 20:49 354K
20260429T18Z_MSC_RDPS_WindV_IsbL-0350_RLatLon0.09_PT025H.grib2 2026-04-29 20:49 466K
20260429T18Z_MSC_RDPS_WindV_IsbL-0400_RLatLon0.09_PT025H.grib2 2026-04-29 20:49 467K
20260429T18Z_MSC_RDPS_WindV_IsbL-0450_RLatLon0.09_PT025H.grib2 2026-04-29 20:49 467K
20260429T18Z_MSC_RDPS_WindV_IsbL-0500_RLatLon0.09_PT025H.grib2 2026-04-29 20:49 468K
20260429T18Z_MSC_RDPS_WindV_IsbL-0550_RLatLon0.09_PT025H.grib2 2026-04-29 20:49 470K
20260429T18Z_MSC_RDPS_WindV_IsbL-0600_RLatLon0.09_PT025H.grib2 2026-04-29 20:49 481K
20260429T18Z_MSC_RDPS_WindV_IsbL-0650_RLatLon0.09_PT025H.grib2 2026-04-29 20:49 486K
20260429T18Z_MSC_RDPS_WindV_IsbL-0700_RLatLon0.09_PT025H.grib2 2026-04-29 20:49 508K
20260429T18Z_MSC_RDPS_WindV_IsbL-0750_RLatLon0.09_PT025H.grib2 2026-04-29 20:49 656K
20260429T18Z_MSC_RDPS_WindV_IsbL-0800_RLatLon0.09_PT025H.grib2 2026-04-29 20:49 697K
20260429T18Z_MSC_RDPS_WindV_IsbL-0850_RLatLon0.09_PT025H.grib2 2026-04-29 20:49 751K
20260429T18Z_MSC_RDPS_WindV_IsbL-0875_RLatLon0.09_PT025H.grib2 2026-04-29 20:49 772K
20260429T18Z_MSC_RDPS_WindV_IsbL-0900_RLatLon0.09_PT025H.grib2 2026-04-29 20:49 788K
20260429T18Z_MSC_RDPS_WindV_IsbL-0925_RLatLon0.09_PT025H.grib2 2026-04-29 20:49 796K
20260429T18Z_MSC_RDPS_WindV_IsbL-0950_RLatLon0.09_PT025H.grib2 2026-04-29 20:49 792K
20260429T18Z_MSC_RDPS_WindV_IsbL-0970_RLatLon0.09_PT025H.grib2 2026-04-29 20:49 793K
20260429T18Z_MSC_RDPS_WindV_IsbL-0985_RLatLon0.09_PT025H.grib2 2026-04-29 20:49 790K
20260429T18Z_MSC_RDPS_WindV_IsbL-1000_RLatLon0.09_PT025H.grib2 2026-04-29 20:49 833K
20260429T18Z_MSC_RDPS_WindV_IsbL-1015_RLatLon0.09_PT025H.grib2 2026-04-29 20:49 825K